Other Surface Observations
Issued by NWS

Current Version | Previous Version | Text Only | Print | Product List | Glossary On
Versions: 1 2 3 4 5 6 7 8 9 10 11 12 13 14 15 16 17 18 19 20 21 22 23 24 25 26 27 28 29 30 31 32 33 34 35 36 37 38 39 40 41 42 43 44 45 46 47 48 49 50
000
SXUS52 KTAE 101916
OSOTAE
OSOTAE
North Florida/South Alabama/Southwest Georgia Weather Roundup
National Weather Service Tallahassee Florida
300 PM EDT MON MAY 10 2021

Note: "fair" indicates few or no clouds below 12,000 feet with no
significant weather and/or obstructions to visibility.

!FLZ017-115-028-034-025-102000
...North Florida...

CITY           SKY/WX    TMP DP  RH WIND       PRES   REMARKS
TALL INTL ARPT CLOUDY    77  68  73 VRB3      30.04F THUNDER
FSU LOVE BLDG    N/A     77  66  69 W2          N/A
APALACHICOLA   CLOUDY    79  76  90 SW6       30.03F
PERRY          NOT AVBL
CROSS CITY     PTSUNNY   84  70  63 W10       30.04F
JACKSONVILLE   PTSUNNY   84  66  54 W14       30.01F
$$

!FLZ112-006-005-002-011-102000
...Florida Panhandle...

CITY           SKY/WX    TMP DP  RH WIND       PRES   REMARKS
MARIANNA       CLOUDY    75  69  81 SW9       30.02F
BONIFAY        FAIR      76  70  82 VRB6      30.04F
PANAMA CITY NW CLOUDY    73  70  90 SW6       30.04F
TYNDALL AFB    TSTM      71  69  93 N5        30.05R
TYND DRONE APT LGT RAIN  72  70  94 NW5       30.06R
DE FUNIAK SPR  MOCLDY    74  69  85 CALM      30.05S
EGLIN AFB      DRIZZLE   73  70  88 W8        30.05R
DESTIN         LGT RAIN  74  69  85 W5        30.05S
HURLBURT       LGT RAIN  72  68  88 W7        30.04F
CRESTVIEW      CLOUDY    75  69  81 W10G18    30.06S
PENSACOLA      RAIN      72  69  90 W10       30.06S
$$

!ALZ063-066-102000
...South Alabama...

CITY           SKY/WX    TMP DP  RH WIND       PRES   REMARKS
DOTHAN         CLOUDY    76  69  79 SW10      30.07S
OZARK CAIRNS   CLOUDY    74  69  83 SW8       30.03F
FT RUCKER HELI CLOUDY    77  68  73 SW10G20   30.02F
RUCKER HELI 3  PTSUNNY   75  68  78 W7        30.00F
RUCKER HELI 2  LGT RAIN  75  70  83 SW6       30.01F
FLORALA APT    CLOUDY    75  67  76 VRB6      30.05F
ANDALUSIA      CLOUDY    78  67  68 SW8G17    30.01F
TROY           PTSUNNY   77  66  68 SW7       30.03S
EUFALA         FAIR      80  66  62 W10       30.01S
MOBILE         CLOUDY    70  69  97 SE10      30.01F FOG
$$

!GAZ120>161-102000
...Southwest and South Central Georgia...

CITY           SKY/WX    TMP DP  RH WIND       PRES   REMARKS
THOMASVILLE    PTSUNNY   75  64  69 W8        30.05F
BAINBRIDGE     CLOUDY    76  68  77 SW8       30.04F
MOODY AFB      CLOUDY    79  68  69 SW10      30.02F
VALDOSTA       CLOUDY    78  68  71 VRB3      30.04F
MOULTRIE       CLOUDY    73  63  68 W7        30.05F
BLAKELY        CLOUDY    77  68  73 SW9       30.03F
ALBANY         CLOUDY    80  68  66 SW8       30.03F
TIFTON         FAIR      78  64  62 W10       30.03F
FITZGERALD     CLOUDY    79  67  66 SW9       30.03F
CORDELE        FAIR      78  65  63 W13G20    30.01F
AMERICUS       MOCLDY    81  66  61 W10       30.02F
HOMERVILLE     FAIR      79  64  61 SW8       30.04F
$$

!GMZ750-755-770-775-102000
...Coastal and Buoy Obs...

STATION/POSITION TIME  TEMP    WIND        PRES    VSBY  WAVE
                       AIR SEA DIR/SP/G                  HT/PER
                 (UTC) (F)     (DEG/KT/KT) (MB)    (MI)  (FT/S)
KEATON BEACH     1900   77     240/  7/  8 1017.6F
CEDAR KEY        1900   80     240/  5/  7 1017.8F
C TOWER          1900   76     190/  7/  8 1017.4F
APALACHICOLA BUO 1900   77 76  160/  6/  8 1016.6
PANAMA CITY BUOY 1900   78 77  190/  6/  8 1017.8
MOBILE BUOY      1900   72 77   50/ 17/ 21 1016.6
ORANGE BCH AL BU 1900   70 74  320/ 12/ 16 1019.4
$$



USA.gov is the U.S. government's official web portal to all federal, state and local government web resources and services.